Time,TemperatureF,DewpointF,PressureIn,WindDirection,WindDirectionDegrees,WindSpeedMPH,WindSpeedGustMPH,Humidity,HourlyPrecipIn,Conditions,Clouds,dailyrainin,SoftwareType,DateUTC
2013-04-21 00:00:00,43.6,28.0,28.91,West,263,1.0,1.0,54,0.00,,,0.21,Wunderground v.1.15,2013-04-21 04:00:00,
2013-04-21 00:05:00,43.4,27.4,28.91,West,275,1.0,1.0,53,0.00,,,0.00,Wunderground v.1.15,2013-04-21 04:05:00,
2013-04-21 00:10:00,43.4,27.8,28.91,NE,44,2.0,2.0,54,0.00,,,0.00,Wunderground v.1.15,2013-04-21 04:10:00,
2013-04-21 00:15:00,43.4,27.8,28.91,West,265,1.0,2.0,54,0.00,,,0.00,Wunderground v.1.15,2013-04-21 04:15:00,
2013-04-21 00:20:00,43.1,28.0,28.91,WSW,249,0.0,0.0,55,0.00,,,0.00,Wunderground v.1.15,2013-04-21 04:20:00,
2013-04-21 00:25:00,42.9,28.3,28.91,SSW,196,0.0,0.0,56,0.00,,,0.00,Wunderground v.1.15,2013-04-21 04:25:00,
2013-04-21 00:30:00,42.7,28.1,28.91,ESE,109,0.0,7.0,56,0.00,,,0.00,Wunderground v.1.15,2013-04-21 04:30:00,
2013-04-21 00:40:00,42.4,27.4,28.91,WNW,303,1.0,1.0,55,0.00,,,0.00,Wunderground v.1.15,2013-04-21 04:40:00,
2013-04-21 00:45:00,42.1,26.2,28.91,WNW,298,0.0,2.0,53,0.00,,,0.00,Wunderground v.1.15,2013-04-21 04:45:00,
2013-04-21 00:55:00,41.6,26.2,28.91,WNW,283,0.0,0.0,54,0.00,,,0.00,Wunderground v.1.15,2013-04-21 04:55:00,
2013-04-21 01:00:00,41.3,25.9,28.91,WNW,299,1.0,1.0,54,0.00,,,0.00,Wunderground v.1.15,2013-04-21 05:00:00,
2013-04-21 01:10:00,41.0,24.7,28.91,NNE,20,1.0,1.0,52,0.00,,,0.00,Wunderground v.1.15,2013-04-21 05:10:00,
2013-04-21 01:15:00,40.8,24.5,28.91,SSW,213,1.0,1.0,52,0.00,,,0.00,Wunderground v.1.15,2013-04-21 05:15:00,
2013-04-21 01:20:00,40.6,24.3,28.91,West,267,1.0,1.0,52,0.00,,,0.00,Wunderground v.1.15,2013-04-21 05:20:00,
2013-04-21 01:30:00,40.2,24.9,28.91,West,267,0.0,0.0,54,0.00,,,0.00,Wunderground v.1.15,2013-04-21 05:30:00,
2013-04-21 01:35:00,39.9,24.6,28.91,West,267,0.0,0.0,54,0.00,,,0.00,Wunderground v.1.15,2013-04-21 05:35:00,
2013-04-21 01:40:00,39.7,24.4,28.91,SW,233,0.0,0.0,54,0.00,,,0.00,Wunderground v.1.15,2013-04-21 05:40:00,
2013-04-21 01:50:00,39.4,24.1,28.91,NW,304,0.0,0.0,54,0.00,,,0.00,Wunderground v.1.15,2013-04-21 05:50:00,
2013-04-21 01:55:00,39.3,24.0,28.91,SSW,211,0.0,0.0,54,0.00,,,0.00,Wunderground v.1.15,2013-04-21 05:55:00,
2013-04-21 02:00:00,39.1,24.3,28.91,South,178,0.0,0.0,55,0.00,,,0.00,Wunderground v.1.15,2013-04-21 06:00:00,
2013-04-21 02:10:00,38.6,23.8,28.91,SW,236,0.0,0.0,55,0.00,,,0.00,Wunderground v.1.15,2013-04-21 06:10:00,
2013-04-21 02:15:00,38.5,23.7,28.91,East,90,0.0,0.0,55,0.00,,,0.00,Wunderground v.1.15,2013-04-21 06:15:00,
2013-04-21 02:25:00,38.2,23.4,28.91,NE,41,0.0,0.0,55,0.00,,,0.00,Wunderground v.1.15,2013-04-21 06:25:00,
2013-04-21 02:30:00,38.0,23.7,28.91,NE,41,0.0,0.0,56,0.00,,,0.00,Wunderground v.1.15,2013-04-21 06:30:00,
2013-04-21 02:40:00,37.5,23.6,28.91,NE,38,0.0,0.0,57,0.00,,,0.00,Wunderground v.1.15,2013-04-21 06:40:00,
2013-04-21 02:45:00,37.3,23.4,28.91,NE,37,0.0,0.0,57,0.00,,,0.00,Wunderground v.1.15,2013-04-21 06:45:00,
2013-04-21 02:55:00,37.0,23.6,28.91,NNE,33,0.0,1.0,58,0.00,,,0.00,Wunderground v.1.15,2013-04-21 06:55:00,
2013-04-21 03:00:00,36.9,23.9,28.91,NNE,29,0.0,0.0,59,0.00,,,0.00,Wunderground v.1.15,2013-04-21 07:00:00,
2013-04-21 03:10:00,36.6,23.6,28.91,NNE,29,0.0,0.0,59,0.00,,,0.00,Wunderground v.1.15,2013-04-21 07:10:00,
2013-04-21 03:15:00,36.4,23.4,28.91,NNE,29,0.0,0.0,59,0.00,,,0.00,Wunderground v.1.15,2013-04-21 07:15:00,
2013-04-21 03:20:00,36.2,24.0,28.91,NNE,29,0.0,0.0,61,0.00,,,0.00,Wunderground v.1.15,2013-04-21 07:20:00,
2013-04-21 03:25:00,35.9,23.7,28.91,NNE,29,0.0,0.0,61,0.00,,,0.00,Wunderground v.1.15,2013-04-21 07:25:00,
2013-04-21 03:35:00,35.3,23.6,28.91,NNE,29,0.0,0.0,62,0.00,,,0.00,Wunderground v.1.15,2013-04-21 07:35:00,
2013-04-21 03:40:00,35.1,23.4,28.91,NNE,29,0.0,0.0,62,0.00,,,0.00,Wunderground v.1.15,2013-04-21 07:40:00,
2013-04-21 03:50:00,34.7,23.0,28.91,NNE,29,0.0,0.0,62,0.00,,,0.00,Wunderground v.1.15,2013-04-21 07:50:00,
2013-04-21 03:55:00,34.4,23.1,28.91,NNE,29,0.0,0.0,63,0.00,,,0.00,Wunderground v.1.15,2013-04-21 07:55:00,
2013-04-21 04:00:00,34.4,23.5,28.91,NNE,29,0.0,0.0,64,0.00,,,0.00,Wunderground v.1.15,2013-04-21 08:00:00,
2013-04-21 04:10:00,34.1,23.2,28.91,NNE,29,0.0,0.0,64,0.00,,,0.00,Wunderground v.1.15,2013-04-21 08:10:00,
2013-04-21 04:15:00,33.9,23.0,28.91,NNE,29,0.0,0.0,64,0.00,,,0.00,Wunderground v.1.15,2013-04-21 08:15:00,
2013-04-21 04:25:00,33.6,22.7,28.91,NNE,29,0.0,0.0,64,0.00,,,0.00,Wunderground v.1.15,2013-04-21 08:25:00,
2013-04-21 04:30:00,33.6,22.7,28.91,NNE,29,0.0,0.0,64,0.00,,,0.00,Wunderground v.1.15,2013-04-21 08:30:00,
2013-04-21 04:40:00,33.4,22.1,28.91,NNE,29,0.0,0.0,63,0.00,,,0.00,Wunderground v.1.15,2013-04-21 08:40:00,
2013-04-21 04:45:00,33.5,22.2,28.91,NNE,29,0.0,0.0,63,0.00,,,0.00,Wunderground v.1.15,2013-04-21 08:45:00,
2013-04-21 04:50:00,33.4,22.1,28.91,NNE,29,0.0,0.0,63,0.00,,,0.00,Wunderground v.1.15,2013-04-21 08:50:00,
2013-04-21 05:00:00,33.2,22.0,28.91,NNE,29,0.0,0.0,63,0.00,,,0.00,Wunderground v.1.15,2013-04-21 09:00:00,
2013-04-21 05:10:00,33.3,22.1,28.91,NNE,29,0.0,0.0,63,0.00,,,0.00,Wunderground v.1.15,2013-04-21 09:10:00,
2013-04-21 05:20:00,33.2,22.0,28.91,NNE,29,0.0,0.0,63,0.00,,,0.00,Wunderground v.1.15,2013-04-21 09:20:00,
2013-04-21 05:25:00,33.0,21.8,28.91,NNE,29,0.0,0.0,63,0.00,,,0.00,Wunderground v.1.15,2013-04-21 09:25:00,
2013-04-21 05:35:00,32.9,21.7,28.91,NNE,28,0.0,0.0,63,0.00,,,0.00,Wunderground v.1.15,2013-04-21 09:35:00,
2013-04-21 05:40:00,33.0,22.1,28.91,NNE,28,0.0,0.0,64,0.00,,,0.00,Wunderground v.1.15,2013-04-21 09:40:00,
2013-04-21 05:45:00,32.9,22.0,28.91,NNE,28,0.0,0.0,64,0.00,,,0.00,Wunderground v.1.15,2013-04-21 09:45:00,
2013-04-21 05:55:00,33.0,22.1,28.91,NNE,26,0.0,2.0,64,0.00,,,0.00,Wunderground v.1.15,2013-04-21 09:55:00,
2013-04-21 06:00:00,33.1,22.2,28.91,NNE,26,0.0,0.0,64,0.00,,,0.00,Wunderground v.1.15,2013-04-21 10:00:00,
2013-04-21 06:10:00,33.2,22.3,28.91,NNE,26,0.0,0.0,64,0.00,,,0.00,Wunderground v.1.15,2013-04-21 10:10:00,
2013-04-21 06:15:00,33.2,22.3,28.91,NNE,26,0.0,0.0,64,0.00,,,0.00,Wunderground v.1.15,2013-04-21 10:15:00,
2013-04-21 06:20:00,33.1,22.2,28.91,NNE,26,0.0,0.0,64,0.00,,,0.00,Wunderground v.1.15,2013-04-21 10:20:00,
2013-04-21 06:30:00,33.0,22.9,28.91,NNE,26,0.0,0.0,66,0.00,,,0.00,Wunderground v.1.15,2013-04-21 10:30:00,
2013-04-21 06:35:00,33.0,22.5,28.91,NNE,26,0.0,0.0,65,0.00,,,0.00,Wunderground v.1.15,2013-04-21 10:35:00,
2013-04-21 06:45:00,32.8,22.7,28.91,NNE,26,0.0,0.0,66,0.00,,,0.00,Wunderground v.1.15,2013-04-21 10:45:00,
2013-04-21 06:50:00,32.8,23.0,28.91,NNE,26,0.0,0.0,67,0.00,,,0.00,Wunderground v.1.15,2013-04-21 10:50:00,
2013-04-21 06:55:00,32.9,22.8,28.91,NE,42,0.0,0.0,66,0.00,,,0.00,Wunderground v.1.15,2013-04-21 10:55:00,
2013-04-21 07:00:00,33.0,22.9,28.91,NE,42,0.0,0.0,66,0.00,,,0.00,Wunderground v.1.15,2013-04-21 11:00:00,
2013-04-21 07:10:00,33.5,23.0,28.91,West,275,0.0,0.0,65,0.00,,,0.00,Wunderground v.1.15,2013-04-21 11:10:00,
2013-04-21 07:15:00,34.0,23.1,28.91,WNW,283,1.0,1.0,64,0.00,,,0.00,Wunderground v.1.15,2013-04-21 11:15:00,
2013-04-21 07:25:00,34.7,23.4,28.91,NW,305,0.0,0.0,63,0.00,,,0.00,Wunderground v.1.15,2013-04-21 11:25:00,
2013-04-21 07:30:00,35.2,23.9,28.91,NW,305,0.0,0.0,63,0.00,,,0.00,Wunderground v.1.15,2013-04-21 11:30:00,
2013-04-21 07:40:00,35.7,23.6,28.91,NNW,338,0.0,1.0,61,0.00,,,0.00,Wunderground v.1.15,2013-04-21 11:40:00,
2013-04-21 07:45:00,36.1,23.5,28.91,WSW,247,0.0,7.0,60,0.00,,,0.00,Wunderground v.1.15,2013-04-21 11:45:00,
2013-04-21 07:55:00,36.5,23.9,32.30,SW,227,1.0,1.0,60,0.00,,,0.00,Wunderground v.1.15,2013-04-21 11:55:00,
2013-04-21 08:00:00,36.6,23.6,32.30,SSE,158,1.0,1.0,59,0.00,,,0.00,Wunderground v.1.15,2013-04-21 12:00:00,
2013-04-21 08:10:00,36.6,23.2,32.30,WSW,246,1.0,1.0,58,0.00,,,0.00,Wunderground v.1.15,2013-04-21 12:10:00,
2013-04-21 08:15:00,36.6,22.8,32.30,West,277,1.0,1.0,57,0.00,,,0.00,Wunderground v.1.15,2013-04-21 12:15:00,
2013-04-21 08:20:00,36.8,23.4,32.30,WSW,254,1.0,1.0,58,0.00,,,0.00,Wunderground v.1.15,2013-04-21 12:20:00,
2013-04-21 08:25:00,37.0,23.6,32.30,SW,219,1.0,1.0,58,0.00,,,0.00,Wunderground v.1.15,2013-04-21 12:25:00,
2013-04-21 08:35:00,37.6,23.7,32.30,WSW,240,1.0,1.0,57,0.00,,,0.00,Wunderground v.1.15,2013-04-21 12:35:00,
2013-04-21 08:40:00,37.9,24.4,32.30,SSW,206,1.0,1.0,58,0.00,,,0.00,Wunderground v.1.15,2013-04-21 12:40:00,
2013-04-21 08:50:00,38.2,24.3,32.30,South,191,1.0,1.0,57,0.00,,,0.00,Wunderground v.1.15,2013-04-21 12:50:00,
2013-04-21 08:55:00,38.4,24.1,32.30,West,266,1.0,2.0,56,0.00,,,0.00,Wunderground v.1.15,2013-04-21 12:55:00,
2013-04-21 09:00:00,38.5,24.1,32.30,ESE,121,1.0,1.0,56,0.00,,,0.00,Wunderground v.1.15,2013-04-21 13:00:00,
2013-04-21 09:10:00,38.9,24.1,32.30,East,97,0.0,0.0,55,0.00,,,0.00,Wunderground v.1.15,2013-04-21 13:10:00,
2013-04-21 09:15:00,39.2,24.8,32.30,WNW,292,1.0,2.0,56,0.00,,,0.00,Wunderground v.1.15,2013-04-21 13:15:00,
2013-04-21 09:25:00,39.7,25.7,32.30,SSE,164,1.0,2.0,57,0.00,,,0.00,Wunderground v.1.15,2013-04-21 13:25:00,
2013-04-21 09:30:00,40.1,25.6,32.30,SSW,209,1.0,2.0,56,0.00,,,0.00,Wunderground v.1.15,2013-04-21 13:30:00,
2013-04-21 09:35:00,40.6,26.1,32.30,SSW,202,1.0,2.0,56,0.00,,,0.00,Wunderground v.1.15,2013-04-21 13:35:00,
2013-04-21 09:45:00,41.1,25.3,32.30,NNE,17,1.0,1.0,53,0.00,,,0.00,Wunderground v.1.15,2013-04-21 13:45:00,
2013-04-21 09:50:00,41.8,26.4,32.30,East,86,1.0,3.0,54,0.00,,,0.00,Wunderground v.1.15,2013-04-21 13:50:00,
2013-04-21 10:00:00,42.4,26.9,32.30,NW,309,1.0,1.0,54,0.00,,,0.00,Wunderground v.1.15,2013-04-21 14:00:00,
2013-04-21 10:10:00,43.1,26.2,32.30,SE,129,0.0,0.0,51,0.00,,,0.00,Wunderground v.1.15,2013-04-21 14:10:00,
2013-04-21 10:20:00,43.2,27.2,32.30,NW,321,1.0,1.0,53,0.00,,,0.00,Wunderground v.1.15,2013-04-21 14:20:00,
2013-04-21 10:25:00,43.5,27.5,32.30,WNW,298,1.0,1.0,53,0.00,,,0.00,Wunderground v.1.15,2013-04-21 14:25:00,
2013-04-21 10:30:00,43.2,27.2,32.30,WSW,243,1.0,2.0,53,0.00,,,0.00,Wunderground v.1.15,2013-04-21 14:30:00,
2013-04-21 10:40:00,43.3,26.8,32.30,SSW,211,1.0,3.0,52,0.00,,,0.00,Wunderground v.1.15,2013-04-21 14:40:00,
2013-04-21 10:45:00,43.7,27.7,32.30,WSW,238,1.0,3.0,53,0.00,,,0.00,Wunderground v.1.15,2013-04-21 14:45:00,
2013-04-21 10:55:00,44.9,28.8,32.30,SW,225,0.0,1.0,53,0.00,,,0.00,Wunderground v.1.15,2013-04-21 14:55:00,
2013-04-21 11:00:00,44.3,26.3,32.30,West,265,2.0,2.0,49,0.00,,,0.00,Wunderground v.1.15,2013-04-21 15:00:00,
2013-04-21 11:10:00,44.1,27.6,32.30,West,268,1.0,3.0,52,0.00,,,0.00,Wunderground v.1.15,2013-04-21 15:10:00,
2013-04-21 11:15:00,44.4,28.3,32.30,SW,223,1.0,3.0,53,0.00,,,0.00,Wunderground v.1.15,2013-04-21 15:15:00,
2013-04-21 11:25:00,45.6,29.9,32.30,WSW,247,1.0,2.0,54,0.00,,,0.00,Wunderground v.1.15,2013-04-21 15:25:00,
2013-04-21 11:30:00,45.8,29.6,32.30,West,265,1.0,1.0,53,0.00,,,0.00,Wunderground v.1.15,2013-04-21 15:30:00,
2013-04-21 11:35:00,44.9,28.8,32.30,WSW,252,2.0,2.0,53,0.00,,,0.00,Wunderground v.1.15,2013-04-21 15:35:00,
2013-04-21 11:45:00,45.1,27.1,32.30,WSW,256,1.0,2.0,49,0.00,,,0.00,Wunderground v.1.15,2013-04-21 15:45:00,
2013-04-21 11:50:00,45.6,29.0,32.30,West,265,0.0,0.0,52,0.00,,,0.00,Wunderground v.1.15,2013-04-21 15:50:00,
2013-04-21 11:55:00,46.4,30.6,32.30,West,264,0.0,1.0,54,0.00,,,0.00,Wunderground v.1.15,2013-04-21 15:55:00,
2013-04-21 12:00:00,47.0,29.8,32.30,West,269,0.0,0.0,51,0.00,,,0.00,Wunderground v.1.15,2013-04-21 16:00:00,
2013-04-21 12:10:00,48.1,29.3,32.30,WSW,254,0.0,2.0,48,0.00,,,0.00,Wunderground v.1.15,2013-04-21 16:10:00,
2013-04-21 12:15:00,47.9,32.9,32.30,WSW,252,0.0,2.0,56,0.00,,,0.00,Wunderground v.1.15,2013-04-21 16:15:00,
2013-04-21 12:25:00,48.6,32.7,32.30,WSW,242,1.0,1.0,54,0.00,,,0.00,Wunderground v.1.15,2013-04-21 16:25:00,
2013-04-21 12:30:00,48.8,31.5,32.30,WSW,256,1.0,2.0,51,0.00,,,0.00,Wunderground v.1.15,2013-04-21 16:30:00,
2013-04-21 12:40:00,48.6,29.8,32.30,SSE,159,1.0,1.0,48,0.00,,,0.00,Wunderground v.1.15,2013-04-21 16:40:00,
2013-04-21 12:45:00,49.1,30.2,32.30,SSE,159,0.0,1.0,48,0.00,,,0.00,Wunderground v.1.15,2013-04-21 16:45:00,
2013-04-21 12:50:00,49.4,31.5,32.30,South,182,0.0,2.0,50,0.00,,,0.00,Wunderground v.1.15,2013-04-21 16:50:00,
2013-04-21 12:55:00,49.2,30.3,32.30,SSW,210,0.0,5.0,48,0.00,,,0.00,Wunderground v.1.15,2013-04-21 16:55:00,
2013-04-21 13:00:00,49.0,31.6,27.71,SW,229,1.0,1.0,51,0.00,,,0.00,Wunderground v.1.15,2013-04-21 17:00:00,
2013-04-21 13:10:00,49.6,31.2,27.71,WSW,242,0.0,0.0,49,0.00,,,0.00,Wunderground v.1.15,2013-04-21 17:10:00,
2013-04-21 13:15:00,50.0,31.6,27.71,SSE,167,1.0,1.0,49,0.00,,,0.00,Wunderground v.1.15,2013-04-21 17:15:00,
2013-04-21 13:25:00,50.1,30.1,27.71,SSE,161,1.0,4.0,46,0.00,,,0.00,Wunderground v.1.15,2013-04-21 17:25:00,
2013-04-21 13:30:00,49.7,30.3,27.71,SW,225,1.0,1.0,47,0.00,,,0.00,Wunderground v.1.15,2013-04-21 17:30:00,
2013-04-21 13:35:00,49.2,28.7,27.71,WSW,255,2.0,2.0,45,0.00,,,0.00,Wunderground v.1.15,2013-04-21 17:35:00,
2013-04-21 13:45:00,48.6,30.3,27.71,SW,219,2.0,3.0,49,0.00,,,0.00,Wunderground v.1.15,2013-04-21 17:45:00,
2013-04-21 13:50:00,49.6,30.7,27.71,SW,224,0.0,0.0,48,0.00,,,0.00,Wunderground v.1.15,2013-04-21 17:50:00,
2013-04-21 13:55:00,50.2,30.7,27.71,SW,228,1.0,1.0,47,0.00,,,0.00,Wunderground v.1.15,2013-04-21 17:55:00,
2013-04-21 14:00:00,50.7,30.1,27.71,SSE,163,1.0,1.0,45,0.00,,,0.00,Wunderground v.1.15,2013-04-21 18:00:00,
2013-04-21 14:10:00,51.6,33.0,27.71,South,187,0.0,5.0,49,0.00,,,0.00,Wunderground v.1.15,2013-04-21 18:10:00,
2013-04-21 14:15:00,51.8,31.7,27.71,SW,218,0.0,5.0,46,0.00,,,0.00,Wunderground v.1.15,2013-04-21 18:15:00,
2013-04-21 14:25:00,51.7,32.1,27.71,West,263,3.0,6.0,47,0.00,,,0.00,Wunderground v.1.15,2013-04-21 18:25:00,
2013-04-21 14:35:00,52.3,31.6,27.71,WNW,293,1.0,2.0,45,0.00,,,0.00,Wunderground v.1.15,2013-04-21 18:35:00,
2013-04-21 14:40:00,52.0,30.2,27.71,West,273,2.0,2.0,43,0.00,,,0.00,Wunderground v.1.15,2013-04-21 18:40:00,
2013-04-21 14:50:00,52.8,30.9,27.71,SSE,162,1.0,1.0,43,0.00,,,0.00,Wunderground v.1.15,2013-04-21 18:50:00,
2013-04-21 14:55:00,52.7,33.0,27.71,SSE,157,1.0,2.0,47,0.00,,,0.00,Wunderground v.1.15,2013-04-21 18:55:00,
2013-04-21 15:00:00,52.5,32.3,27.71,SSE,148,1.0,4.0,46,0.00,,,0.00,Wunderground v.1.15,2013-04-21 19:00:00,
2013-04-21 15:10:00,52.6,31.3,27.71,SSE,148,0.0,0.0,44,0.00,,,0.00,Wunderground v.1.15,2013-04-21 19:10:00,
2013-04-21 15:15:00,53.0,30.5,27.71,SSE,148,0.0,2.0,42,0.00,,,0.00,Wunderground v.1.15,2013-04-21 19:15:00,
2013-04-21 15:25:00,52.9,33.2,27.79,SW,221,1.0,1.0,47,0.00,,,0.00,Wunderground v.1.15,2013-04-21 19:25:00,
2013-04-21 15:30:00,53.8,33.5,27.79,WSW,248,1.0,1.0,46,0.00,,,0.00,Wunderground v.1.15,2013-04-21 19:30:00,
2013-04-21 15:35:00,54.6,35.3,27.79,WSW,244,0.0,1.0,48,0.00,,,0.00,Wunderground v.1.15,2013-04-21 19:35:00,
2013-04-21 15:45:00,53.6,32.8,27.79,South,184,1.0,1.0,45,0.00,,,0.00,Wunderground v.1.15,2013-04-21 19:45:00,
2013-04-21 15:55:00,53.3,30.8,27.79,SE,144,1.0,4.0,42,0.00,,,0.00,Wunderground v.1.15,2013-04-21 19:55:00,
2013-04-21 16:00:00,52.9,29.8,27.79,SE,144,1.0,1.0,41,0.00,,,0.00,Wunderground v.1.15,2013-04-21 20:00:00,
2013-04-21 16:10:00,54.0,33.1,27.63,SE,144,0.0,0.0,45,0.00,,,0.00,Wunderground v.1.15,2013-04-21 20:10:00,
2013-04-21 16:15:00,54.5,33.6,27.63,SE,144,0.0,0.0,45,0.00,,,0.00,Wunderground v.1.15,2013-04-21 20:15:00,
2013-04-21 16:20:00,54.6,31.9,27.63,NE,49,1.0,1.0,42,0.00,,,0.00,Wunderground v.1.15,2013-04-21 20:20:00,
2013-04-21 16:30:00,54.1,30.9,27.57,ESE,115,1.0,4.0,41,0.00,,,0.00,Wunderground v.1.15,2013-04-21 20:30:00,
2013-04-21 16:35:00,53.9,31.3,27.57,ESE,116,1.0,4.0,42,0.00,,,0.00,Wunderground v.1.15,2013-04-21 20:35:00,
2013-04-21 16:40:00,54.0,31.4,27.57,SSE,150,1.0,1.0,42,0.00,,,0.00,Wunderground v.1.15,2013-04-21 20:40:00,
2013-04-21 16:45:00,53.8,30.6,27.57,SW,231,1.0,1.0,41,0.00,,,0.00,Wunderground v.1.15,2013-04-21 20:45:00,
2013-04-21 16:55:00,54.3,30.5,27.78,South,183,0.0,1.0,40,0.00,,,0.00,Wunderground v.1.15,2013-04-21 20:55:00,
2013-04-21 17:00:00,54.4,31.8,27.78,South,183,1.0,1.0,42,0.00,,,0.00,Wunderground v.1.15,2013-04-21 21:00:00,
2013-04-21 17:10:00,54.9,31.6,27.78,South,180,0.0,0.0,41,0.00,,,0.00,Wunderground v.1.15,2013-04-21 21:10:00,
2013-04-21 17:15:00,55.2,30.0,27.78,South,179,0.0,0.0,38,0.00,,,0.00,Wunderground v.1.15,2013-04-21 21:15:00,
2013-04-21 17:20:00,55.3,30.7,27.78,South,180,0.0,0.0,39,0.00,,,0.00,Wunderground v.1.15,2013-04-21 21:20:00,
2013-04-21 17:30:00,56.0,33.8,27.78,South,180,0.0,2.0,43,0.00,,,0.00,Wunderground v.1.15,2013-04-21 21:30:00,
2013-04-21 17:35:00,55.6,30.4,27.78,SSW,209,1.0,2.0,38,0.00,,,0.00,Wunderground v.1.15,2013-04-21 21:35:00,
2013-04-21 17:40:00,55.7,32.3,27.78,SSW,209,1.0,1.0,41,0.00,,,0.00,Wunderground v.1.15,2013-04-21 21:40:00,
2013-04-21 17:45:00,55.6,31.0,27.78,NE,35,0.0,1.0,39,0.00,,,0.00,Wunderground v.1.15,2013-04-21 21:45:00,
2013-04-21 17:55:00,54.4,32.3,27.01,ESE,111,1.0,1.0,43,0.00,,,0.00,Wunderground v.1.15,2013-04-21 21:55:00,
2013-04-21 18:00:00,54.5,31.3,27.01,East,79,0.0,0.0,41,0.00,,,0.00,Wunderground v.1.15,2013-04-21 22:00:00,
2013-04-21 18:10:00,55.0,31.7,27.01,East,79,0.0,0.0,41,0.00,,,0.00,Wunderground v.1.15,2013-04-21 22:10:00,
2013-04-21 18:15:00,54.7,30.8,27.01,East,79,0.0,0.0,40,0.00,,,0.00,Wunderground v.1.15,2013-04-21 22:15:00,
2013-04-21 18:20:00,54.1,31.5,27.01,East,79,0.0,0.0,42,0.00,,,0.00,Wunderground v.1.15,2013-04-21 22:20:00,
2013-04-21 18:25:00,53.5,29.1,27.01,East,79,0.0,0.0,39,0.00,,,0.00,Wunderground v.1.15,2013-04-21 22:25:00,
2013-04-21 18:35:00,52.9,29.2,28.32,East,79,0.0,1.0,40,0.00,,,0.00,Wunderground v.1.15,2013-04-21 22:35:00,
2013-04-21 18:40:00,52.5,28.8,28.32,East,79,0.0,0.0,40,0.00,,,0.00,Wunderground v.1.15,2013-04-21 22:40:00,
2013-04-21 18:45:00,52.1,30.3,28.32,East,90,0.0,0.0,43,0.00,,,0.00,Wunderground v.1.15,2013-04-21 22:45:00,
2013-04-21 18:55:00,51.4,30.2,28.32,East,90,0.0,0.0,44,0.00,,,0.00,Wunderground v.1.15,2013-04-21 22:55:00,
2013-04-21 19:00:00,51.2,31.1,28.32,East,90,0.0,0.0,46,0.00,,,0.00,Wunderground v.1.15,2013-04-21 23:00:00,
2013-04-21 19:10:00,50.6,30.6,28.32,East,90,0.0,0.0,46,0.00,,,0.00,Wunderground v.1.15,2013-04-21 23:10:00,
2013-04-21 19:15:00,50.1,30.1,28.32,East,90,0.0,0.0,46,0.00,,,0.00,Wunderground v.1.15,2013-04-21 23:15:00,
2013-04-21 19:20:00,49.6,31.2,28.32,East,90,0.0,0.0,49,0.00,,,0.00,Wunderground v.1.15,2013-04-21 23:20:00,
2013-04-21 19:30:00,48.7,31.4,28.32,East,90,0.0,0.0,51,0.00,,,0.00,Wunderground v.1.15,2013-04-21 23:30:00,
2013-04-21 19:40:00,47.7,30.9,28.32,East,90,0.0,0.0,52,0.00,,,0.00,Wunderground v.1.15,2013-04-21 23:40:00,
2013-04-21 19:45:00,47.2,31.4,28.32,East,90,0.0,0.0,54,0.00,,,0.00,Wunderground v.1.15,2013-04-21 23:45:00,
2013-04-21 19:55:00,46.0,31.2,28.32,East,90,0.0,0.0,56,0.00,,,0.00,Wunderground v.1.15,2013-04-21 23:55:00,
2013-04-21 20:00:00,45.4,31.5,28.32,East,90,0.0,0.0,58,0.00,,,0.00,Wunderground v.1.15,2013-04-22 00:00:00,
2013-04-21 20:10:00,44.4,31.4,28.32,East,90,0.0,0.0,60,0.00,,,0.00,Wunderground v.1.15,2013-04-22 00:10:00,
2013-04-21 20:15:00,44.0,31.8,28.32,East,90,0.0,0.0,62,0.00,,,0.00,Wunderground v.1.15,2013-04-22 00:15:00,
2013-04-21 20:20:00,43.5,31.3,28.32,East,90,0.0,0.0,62,0.00,,,0.00,Wunderground v.1.15,2013-04-22 00:20:00,
2013-04-21 20:25:00,43.1,31.4,28.32,East,90,0.0,0.0,63,0.00,,,0.00,Wunderground v.1.15,2013-04-22 00:25:00,
2013-04-21 20:35:00,42.4,30.3,27.46,East,90,0.0,0.0,62,0.00,,,0.00,Wunderground v.1.15,2013-04-22 00:35:00,
2013-04-21 20:40:00,42.0,30.3,27.46,East,90,0.0,0.0,63,0.00,,,0.00,Wunderground v.1.15,2013-04-22 00:40:00,
2013-04-21 20:45:00,41.8,29.7,27.46,East,90,0.0,0.0,62,0.00,,,0.00,Wunderground v.1.15,2013-04-22 00:45:00,
2013-04-21 20:55:00,44.4,31.4,27.46,ESE,105,1.0,1.0,60,0.00,,,0.00,Wunderground v.1.15,2013-04-22 00:55:00,
2013-04-21 21:00:00,45.2,31.3,27.46,ESE,106,1.0,1.0,58,0.00,,,0.00,Wunderground v.1.15,2013-04-22 01:00:00,
2013-04-21 21:10:00,45.5,31.6,27.46,ESE,106,0.0,0.0,58,0.00,,,0.00,Wunderground v.1.15,2013-04-22 01:10:00,
2013-04-21 21:15:00,45.4,31.0,27.46,ESE,107,0.0,0.0,57,0.00,,,0.00,Wunderground v.1.15,2013-04-22 01:15:00,
2013-04-21 21:25:00,45.2,30.9,27.89,ESE,107,0.0,0.0,57,0.00,,,0.00,Wunderground v.1.15,2013-04-22 01:25:00,
2013-04-21 21:30:00,45.0,31.1,27.89,ESE,107,0.0,0.0,58,0.00,,,0.00,Wunderground v.1.15,2013-04-22 01:30:00,
2013-04-21 21:40:00,44.8,30.9,27.89,ESE,107,0.0,0.0,58,0.00,,,0.00,Wunderground v.1.15,2013-04-22 01:40:00,
2013-04-21 21:45:00,44.6,31.1,27.89,ESE,107,0.0,0.0,59,0.00,,,0.00,Wunderground v.1.15,2013-04-22 01:45:00,
2013-04-21 21:50:00,44.3,30.9,27.89,ESE,107,0.0,0.0,59,0.00,,,0.00,Wunderground v.1.15,2013-04-22 01:50:00,
2013-04-21 21:55:00,44.0,31.0,27.89,ESE,107,0.0,0.0,60,0.00,,,0.00,Wunderground v.1.15,2013-04-22 01:55:00,
2013-04-21 22:05:00,43.2,30.6,28.28,ESE,107,0.0,0.0,61,0.00,,,0.00,Wunderground v.1.15,2013-04-22 02:05:00,
2013-04-21 22:10:00,42.9,30.4,27.74,ESE,107,0.0,0.0,61,0.00,,,0.00,Wunderground v.1.15,2013-04-22 02:10:00,
2013-04-21 22:20:00,42.7,30.6,27.74,ESE,107,0.0,0.0,62,0.00,,,0.00,Wunderground v.1.15,2013-04-22 02:20:00,
2013-04-21 22:25:00,42.4,30.3,27.74,ESE,107,0.0,0.0,62,0.00,,,0.00,Wunderground v.1.15,2013-04-22 02:25:00,
2013-04-21 22:30:00,42.3,30.6,27.74,ESE,107,0.0,0.0,63,0.00,,,0.00,Wunderground v.1.15,2013-04-22 02:30:00,
2013-04-21 22:40:00,41.9,30.2,27.74,ESE,107,0.0,0.0,63,0.00,,,0.00,Wunderground v.1.15,2013-04-22 02:40:00,
2013-04-21 22:45:00,41.8,30.1,27.74,ESE,107,0.0,0.0,63,0.00,,,0.00,Wunderground v.1.15,2013-04-22 02:45:00,
2013-04-21 22:55:00,41.4,30.1,29.88,ESE,107,0.0,0.0,64,0.00,,,0.00,Wunderground v.1.15,2013-04-22 02:55:00,
2013-04-21 23:00:00,41.3,30.0,29.88,ESE,107,0.0,0.0,64,0.00,,,0.00,Wunderground v.1.15,2013-04-22 03:00:00,
2013-04-21 23:10:00,40.8,30.3,29.88,ESE,107,0.0,0.0,66,0.00,,,0.00,Wunderground v.1.15,2013-04-22 03:10:00,
2013-04-21 23:15:00,40.4,29.9,29.88,ESE,107,0.0,0.0,66,0.00,,,0.00,Wunderground v.1.15,2013-04-22 03:15:00,
2013-04-21 23:25:00,39.8,30.1,29.88,ESE,107,0.0,0.0,68,0.00,,,0.00,Wunderground v.1.15,2013-04-22 03:25:00,
2013-04-21 23:30:00,39.4,29.7,29.88,ESE,107,0.0,0.0,68,0.00,,,0.00,Wunderground v.1.15,2013-04-22 03:30:00,
2013-04-21 23:35:00,39.1,29.4,29.88,ESE,107,0.0,0.0,68,0.00,,,0.00,Wunderground v.1.15,2013-04-22 03:35:00,
2013-04-21 23:45:00,38.5,29.6,29.88,ESE,107,0.0,0.0,70,0.00,,,0.00,Wunderground v.1.15,2013-04-22 03:45:00,
2013-04-21 23:50:00,38.3,29.7,29.88,ESE,107,0.0,0.0,71,0.00,,,0.00,Wunderground v.1.15,2013-04-22 03:50:00,
2013-04-21 23:55:00,38.1,29.5,29.88,ESE,107,0.0,0.0,71,0.00,,,0.00,Wunderground v.1.15,2013-04-22 03:55:00,